Preview of NWS' New Version of Forecast
This preview is not operational and should not be used for support decisions.

Regional Weather Roundup (RWR)

Issued by National Weather Service (NWS)

                            
000
ASUS45 KBOI 210310
RWRID 

IDAHO REGIONAL WEATHER ROUNDUP
NATIONAL WEATHER SERVICE BOISE ID
900 PM MDT SAT APR 20 2019

NOTE: "FAIR" INDICATES FEW OR NO CLOUDS BELOW 12000 FEET
WITH NO SIGNIFICANT WEATHER AND/OR OBSTRUCTIONS TO VISIBILITY

IDZ012-014-210400-
SOUTHWEST IDAHO

  
CITY           SKY/WX    TMP DP  RH WIND       PRES   REMARKS
BOISE          CLOUDY    54  47  77 W9        29.81R                  
CALDWELL       CLOUDY    52  46  80 W17       29.83S                  
MOUNTAIN HOME  LGT RAIN  47  47 100 NW10      29.81R                  
$$

IDZ016-017-210400-
SOUTHCENTRAL IDAHO

  
CITY           SKY/WX    TMP DP  RH WIND       PRES   REMARKS
BURLEY         CLOUDY    53  45  74 W3        29.79R                  
JEROME         CLOUDY    51  49  92 W13       29.80R                  
TWIN FALLS     CLOUDY    50  48  93 W16G26    29.81R                  
$$

IDZ019>023-210400-
SOUTHEAST IDAHO

  
CITY           SKY/WX    TMP DP  RH WIND       PRES   REMARKS
IDAHO FALLS    CLOUDY    55  36  48 SW9       29.76R                  
POCATELLO      CLOUDY    56  43  61 W13       29.79R                  
REXBURG        CLOUDY    58  35  42 S9        29.74S                  
$$

IDZ006-010-011-018-031-032-210400-
CENTRAL IDAHO MOUNTAINS

  
CITY           SKY/WX    TMP DP  RH WIND       PRES   REMARKS
MCCALL         LGT RAIN  40  37  89 NW7       29.85R                  
HAILEY         HVY RAIN  46  43  87 NW7       29.87R                  
STANLEY          N/A     39  35  86 CALM      29.87F                  
SALMON         CLOUDY    53  48  83 CALM      29.79R                  
CHALLIS        RAIN      50  41  71 W10       29.82R                  
$$

IDZ002-004-006-007-026-210400-
NORTHERN IDAHO

  
CITY           SKY/WX    TMP DP  RH WIND       PRES   REMARKS
LEWISTON       CLOUDY    57  43  59 W5        29.90R                  
LOWELL           N/A     51  51 100 CALM      29.90                   
COEUR D'ALENE  MOCLDY    48  45  89 CALM      29.91R                  
MULLAN PASS    FOG       37  35  92 N5        29.90R VSB 1/2 WCI  33  
$$